This is the latest recevied weather packets stored in our database for station/object K5OLV. If no packets are shown the sender has not sent any weather packets the latest 10 day(s).
| Time | Temp. | Humidity | Pressure | Rain* | Wind** | Luminosity | Snow |
|---|---|---|---|---|---|---|---|
| 1777970674 | 17.22° C | 58% | 1010.7 hPa | 0 mm | - | 0 W/m² | - |
| 1777970372 | 17.78° C | 55% | 1010.8 hPa | 0 mm | - | 0 W/m² | - |
| 1777970069 | 17.78° C | 54% | 1010.7 hPa | 0 mm | - | 0 W/m² | - |
| 1777969765 | 17.78° C | 55% | 1010.8 hPa | 0 mm | - | 0 W/m² | - |
| 1777969461 | 17.22° C | 55% | 1010.9 hPa | 0 mm | - | 0 W/m² | - |
| 1777969158 | 17.22° C | 55% | 1011 hPa | 0 mm | - | 0 W/m² | - |
| 1777968855 | 17.22° C | 55% | 1010.9 hPa | 0 mm | - | 0 W/m² | - |
| 1777968551 | 17.78° C | 56% | 1011.1 hPa | 0 mm | - | 0 W/m² | - |
| 1777968248 | 17.78° C | 55% | 1011.1 hPa | 0 mm | - | 0 W/m² | - |
| 1777967943 | 17.22° C | 56% | 1011.1 hPa | 0 mm | - | 0 W/m² | - |
| 1777967640 | 17.22° C | 55% | 1011.1 hPa | 0 mm | - | 0 W/m² | - |
| 1777967337 | 17.22° C | 55% | 1011.1 hPa | 0 mm | - | 0 W/m² | - |
| 1777967034 | 17.22° C | 55% | 1011.1 hPa | 0 mm | - | 0 W/m² | - |
| 1777966732 | 17.22° C | 56% | 1011.2 hPa | 0 mm | - | 0 W/m² | - |
| 1777966430 | 17.22° C | 57% | 1011 hPa | 0 mm | - | 0 W/m² | - |
| 1777966126 | 16.67° C | 57% | 1011.1 hPa | 0 mm | - | 0 W/m² | - |
| 1777965822 | 16.11° C | 58% | 1011.2 hPa | 0 mm | - | 0 W/m² | - |
| 1777965519 | 16.11° C | 58% | 1011.3 hPa | 0 mm | - | 0 W/m² | - |
| 1777965215 | 15.56° C | 63% | 1011.5 hPa | 0 mm | - | 0 W/m² | - |
| 1777964914 | 14.44° C | 63% | 1011.3 hPa | 0 mm | - | 0 W/m² | - |
| 1777964609 | 14.44° C | 69% | 1011.1 hPa | 0 mm | - | 0 W/m² | - |
| 1777964305 | 14.44° C | 68% | 1011 hPa | 0 mm | - | 0 W/m² | - |
| 1777964002 | 14.44° C | 68% | 1011.4 hPa | 0 mm | - | 0 W/m² | - |
| 1777963699 | 14.44° C | 67% | 1011.5 hPa | 0 mm | - | 0 W/m² | - |
| 1777963396 | 14.44° C | 67% | 1011.3 hPa | 0 mm | - | 0 W/m² | - |
* Rain latest hour (hover to see other rain measurements)
** Current wind speed in m/s (hover to see current wind gust speed)